www.pogodaiklimat.ru

Погода и климат >> Архив погоды >> Россия >> Якутия >> Джарджан


АРХИВ ПОГОДЫ в Джарджане

Время (UTC), дата Ветер
(напр.,м/с)
 
Видим.   Явления Облачность Т
(С)
Тd
(С)
f
(%)
Тe
(С)
Тes
(С)
Комфортность P
(гПа)
Po
(гПа)
Тmin
(С)
Tmax
(С)
R
(мм)
R24
(мм)
S
(см)
03 15.04 С 3 20 км сильн. снег 10/0
[Ac As]
-10.6 -13.4 80 -17 -15 1003.9 998.9
06 15.04 С 4 20 км сильн. снег 10/0
[Ac As]
-8.6 -11.0 83 -15 -14 1004.1 999.1
09 15.04 С 3 50 км {снег} 6/0
[Ac As]
-8.0 -10.7 81 -14 -13 1005.6 1000.6
12 15.04 С 2 50 км 3/0
[Ac As]
-11.8 -13.8 85 -16 -16 1007.2 1002.2 -8.0 0.8
15 15.04 штиль 0 50 км ясно -18.1 -20.0 85 -18 -18 1008.1 1002.9
18 15.04 штиль 0 50 км ясно -24.0 -26.5 80 -24 -24 1009.0 1003.7
21 15.04 штиль 0 50 км ясно -25.8 -28.2 80 -26 -25 1009.6 1004.3
00 16.04 штиль 0 50 км ясно -19.3 -21.2 85 -19 -15 1010.5 1005.2 -25.8 34
03 16.04 штиль 0 50 км ясно -11.0 -17.2 60 -11 -3 1010.2 1005.1
06 16.04 штиль 0 50 км ясно -6.4 -19.6 34 -7 0 1009.9 1005.0
09 16.04 штиль 0 50 км ясно -7.5 -18.6 41 -8 -6 1010.5 1005.5
12 16.04 штиль 0 50 км ясно -11.5 -19.9 50 -12 -12 1011.7 1006.6 -6.4
15 16.04 В 1 50 км ясно -15.4 -20.5 65 -18 -18 1012.0 1006.8
18 16.04 СВ 2 50 км ясно -20.0 -23.3 75 -26 -26 1012.7 1007.4
21 16.04 СВ 3 50 км ясно -23.3 -25.8 80 -32 -31 опасность
обморожения
1013.5 1008.1
00 17.04 штиль 0 50 км ясно -16.0 -23.0 55 -16 -12 1013.9 1008.7 -23.3 34
03 17.04 ЮЗ 1 50 км ясно -9.6 -18.8 47 -12 -4 1013.9 1008.8
06 17.04 СЗ 1 50 км ясно -3.5 -18.5 30 -5 +1 1014.0 1009.0
09 17.04 СВ 2 50 км ясно -5.7 -17.9 38 -9 -8 1014.7 1009.7
12 17.04 СВ 1 50 км ясно -9.5 -20.2 41 -11 -11 1015.7 1010.6 -3.5
15 17.04 СВ 1 50 км ясно -15.4 -20.5 65 -18 -18 1016.0 1010.8
18 17.04 СВ 2 50 км ясно -20.1 -23.4 75 -26 -26 1016.2 1010.9
21 17.04 В 1 50 км ясно -20.8 -24.1 75 -24 -24 1016.4 1011.1
00 18.04 штиль 0 50 км ясно -13.1 -20.2 55 -13 -9 1015.9 1010.7 -20.8 34
03 18.04 ЮЗ 4 50 км 10/0
[Ac As]
-8.8 -16.7 53 -15 -14 1015.5 1010.4
06 18.04 ЮЗ 4 50 км 10/0
[Ac trans Cs]
-4.0 -14.6 43 -9 -7 1015.0 1010.0
09 18.04 Ю 4 50 км 10/0
[Cs]
-3.7 -15.9 38 -9 -8 1014.6 1009.6
12 18.04 Ю 3 50 км 10/0
[Cs]
-5.0 -15.9 42 -10 -10 1014.3 1009.3 -3.2
15 18.04 Ю 5 50 км 10/0
[Ac As]
-5.9 -15.6 46 -13 -13 1014.6 1009.6
18 18.04 Ю 8
{13}
50 км 6/0
[Ac As]
-7.8 -17.7 45 -17 -17 1015.3 1010.2
21 18.04 Ю 5
{11}
50 км 10/0
[Ci fib]
-11.2 -19.6 50 -19 -19 1016.0 1010.9
00 19.04 Ю 4 50 км ясно -7.8 -17.0 48 -14 -12 1016.1 1011.0 -11.2 34
03 19.04 Ю 4 50 км 3/0
[Ci fib]
-3.1 -16.8 34 -8 -4 1015.8 1010.8
06 19.04 Ю 5
{11}
50 км ясно -1.3 -16.2 31 -7 -4 1014.8 1009.9
09 19.04 Ю 5
{10}
50 км ясно -2.0 -16.4 32 -8 -7 1014.7 1009.8
12 19.04 Ю 1 50 км ясно -5.3 -19.6 31 -7 -7 1014.7 1009.7 -1.3
15 19.04 В 1 50 км ясно -10.3 -20.0 45 -12 -12 1014.8 1009.7
18 19.04 СВ 2 50 км ясно -14.5 -20.6 60 -19 -19 1015.3 1010.1
21 19.04 СВ 3 50 км ясно -15.7 -21.7 60 -22 -22 1015.3 1010.1
00 20.04 СВ 2 50 км ясно -8.0 -20.6 36 -12 -8 1015.1 1010.0 -15.7 34
03 20.04 С 2 50 км 6/0
[Cs]
-2.8 -19.2 27 -6 0 1013.5 1008.5
06 20.04 СВ 3 50 км 10/0
[Cs]
-0.1 -18.2 24 -4 0 1012.1 1007.2
09 20.04 СВ 3 50 км 10/0
[Ac As]
-1.4 -16.4 31 -5 -5 1010.5 1005.6
12 20.04 СВ 2 50 км 10/0
[Ac As]
-3.4 -16.7 35 -7 -7 1009.2 1004.3 -0.1
15 20.04 штиль 0 50 км 8/0
[Ac As]
-9.0 -14.0 67 -9 -9 1007.8 1002.8
18 20.04 СВ 1 50 км 10/0
[Ac As]
-9.3 -14.9 64 -11 -11 1006.3 1001.3
21 20.04 СВ 1 50 км 10/0
[Ac As]
-8.8 -15.4 59 -11 -11 1004.9 999.9
00 21.04 штиль 0 50 км 10/0
[Ac As]
-7.5 -14.0 60 -8 -6 1003.5 998.6 -9.3 34
03 21.04 штиль 0 50 км 10/0
[Ac As]
+1.9 -14.8 28 +2 +5 1002.2 997.4
06 21.04 ЮЗ 2 50 км 10/0
[Ac As]
+0.7 -9.3 47 -2 -0 1001.1 996.3
09 21.04 Ю 4 50 км 10/0
[Ac As]
+0.9 -4.8 66 -4 -4 1001.2 996.4
12 21.04 Ю 3 50 км 10/8 600 м
[Cb cap Ac As]
-0.9 -4.4 77 -6 -6 1001.9 997.1 +1.9
15 21.04 Ю 2 50 км 10/0
[Ac As]
-3.5 -4.3 94 -8 -8 1002.2 997.3
18 21.04 Ю 2 50 км 10/0
[Ac As]
-3.2 -4.6 90 -7 -7 1002.4 997.5
21 21.04 Ю 2 50 км 10/0
[Ac trans Cs]
-4.7 -6.4 88 -9 -9 1002.7 997.8

 

Местоположение метеостанции Джарджан (Якутия, Россия): широта 68.73 долгота 124.00 высота над уровнем моря 39 м.

В архиве по умолчанию представлена погода в Джарджане за последнюю неделю. Архивные данные за месяц целиком и за предыдущие месяцы, начиная с января 2011 года, Вы можете получить, выбрав интересующий диапазон дат из раскрывающегося списка и нажав кнопку "Ввод!".


*Определитесь, кто Вы:
робот инопланетянин человек

Внимание! Время в таблицах - всемирное. Для получения местного времени необходимо прибавить поправку, которая равна 9 ч.

Смотрите также архив погоды в соседних городах и на ближайших метеорологических станциях:

Погода в Жиганске (Якутия, Россия) (219 км)
Погода в Сухане (Якутия, Россия) (231 км)
Погода в Кюсюре (Якутия, Россия) (253 км)
Погода в Батагай-Алыте (Якутия, Россия) (284 км)
Погода в Тюмяти (Якутия, Россия) (355 км)
Погода в Тикси (Якутия, Россия) (367 км)
Погода в Бестяхской Звероферме (Якутия, Россия) (382 км)
Погода в Екюччю (Якутия, Россия) (387 км)
Погода в Верхоянске (Якутия, Россия) (409 км)
Погода на Мысе Быков (Якутия, Россия) (410 км)

Пояснения к столбцам:

Ветер - указаны скорость ветра в м/с - средняя за 10 мин, порывы в срок и между сроками (в фигурных скобках) и направление, откуда дует ветер: С - северный, СВ - северо-восточный, В - восточный, ЮВ - юго-восточный, Ю - южный, ЮЗ - юго-западный, З - западный, СЗ - северо-западный.
Видимость - горизонтальная дальность видимости в метрах или километрах. При видимости от 1 до 10 км при отсутствии осадков обычно наблюдается дымка, при ухудшении видимости до 1 км и менее - туман. В сухую погоду видимость может ухудшаться дымом, пылью или мглою.
Явления - указаны атмосферные явления, наблюдавшиеся в срок или в последний час перед сроком; фигурными скобками обозначены явления, наблюдавшиеся между сроками (за 1-3 часа до срока); квадратными скобками обозначены град или гололедные отложения с указанием их диаметра в мм.
Облачность - указаны через наклонную черту общая и нижняя облачность в баллах и высота нижней границы облаков в метрах; квадратными скобками обозначены формы облаков: Ci - перистые, Cs - перисто-слоистые, Cc - перисто-кучевые, Ac - высококучевые, As - высокослоистые, Sc - слоисто-кучевые, Ns - слоисто-дождевые, Cu - кучевые, Cb - кучево-дождевые. Подробнее классификацию облаков см. в Атласе облаков (PDF).
T - Температура воздуха - температура, измеренная на высоте 2 м над землей.
Td - Температура точки росы - температура, при понижении до которой содержащийся в воздухе водяной пар достигнет насыщения.
f - Относительная влажность воздуха - влажноcть воздуха, измеренная на высоте 2 м над землей.
Te - Эффективная температура - температура, которую ощущает одетый по сезону человек в тени. Характеристика душности погоды. При расчете учитывается влияние влажности воздуха и скорости ветра на теплоощущения человека.
Tes - Эффективная температура на солнце - температура, которую ощущает человек, с поправкой на солнечный нагрев. Характеристика знойности погоды. Зависит от высоты солнца над горизонтом, облачности и скорости ветра. Ночью, в пасмурную погоду, а также при ветре 12 м/с и более поправка равна нулю.
P - Атмосферное давление - приведенное к уровню моря атмосферное давление.
Po - Атмосферное давление - измеренное на уровне метеостанции атмосферное давление.
Tmin - Минимальная температура - минимум температуры воздуха на высоте 2 м над землей.
Tmax - Максимальная температура - максимум температуры воздуха на высоте 2 м над землей.
R - Количество осадков - Количество выпавших осадков за период времени, мм. При наведении курсора мыши на число - период времени, за который выпало указанное количество осадков.
R24 - Количество осадков - Количество выпавших осадков за 24 часа, мм.
S - Снежный покров - Высота снежного покрова, см. При наведении курсора мыши на число - состояние снежного покрова и степень покрытия местности в баллах.